Location: Livron
(44.7731°N, 4.8471°E)
Time: 01:41:58
(UTC+00:00)

Daily predictions for brighter satellites

Satellite Brightness Start Highest point End
(mag) Time Altitude Azimuth Time Altitude Azimuth Time Altitude Azimuth
Cosmos 2263 Rocket 4.5 01:00:22 10° N 01:03:49 20° NE 01:03:49 20° NE
Resurs 1-4 Rocket 4.3 01:25:18 10° NNE 01:26:56 21° NNE 01:26:56 21° NNE
SL-16 R/B 4.4 01:35:43 20° NNW 01:35:43 20° NNW 01:37:29 10° NNW
CZ-2D R/B 4.2 01:31:52 10° NNE 01:33:36 21° N 01:33:36 21° N
USA 267 4.3 01:44:44 10° ENE 01:49:37 35° ESE 01:49:37 35° ESE
ARIANE 5 R/B 4.4 01:47:03 10° NE 01:50:05 25° ENE 01:50:05 25° ENE
ATLAS 5 CENTAUR R/B 4.5 01:57:35 12° N 01:57:35 12° N 01:58:37 10° N
Gbstr 26 Del rocket 4.5 02:03:39 78° NE 02:03:39 78° NE 02:11:11 10° ESE
ATLAS 2AS CENTAUR R/B 4.4 01:57:38 10° NNW 02:04:22 32° NNE 02:10:39 10° E
SL-4 R/B 4.3 02:21:54 26° E 02:21:54 26° E 02:24:10 10° ENE
ADEOS II 3.3 02:15:14 10° NNE 02:18:19 37° N 02:18:19 37° N
IDEFIX/ARIANE 42P 3.6 02:17:30 10° NNE 02:22:24 42° E 02:22:24 42° E
USA 234 4.1 02:19:58 10° E 02:26:07 45° NNE 02:30:47 17° NW
Cosmos 1238 Rocket 4.1 02:27:44 10° N 02:33:16 66° N 02:33:16 66° N
Cosmos 1605 Rocket 4.3 02:28:03 10° N 02:34:26 65° E 02:37:18 34° SSE
Cosmos 2360 Rocket 4.3 02:33:12 14° SE 02:36:20 22° E 02:40:34 10° NE
Cosmos 1535 Rocket 4.5 02:30:30 10° N 02:36:27 77° NNW 02:36:27 77° NNW
H-2A R/B 4.2 02:33:49 10° ESE 02:37:29 26° ENE 02:41:14 10° N
Cosmos 1697 Rocket 4.1 02:40:57 26° NNW 02:40:57 26° NNW 02:44:22 10° N
Cosmos 1980 Rocket 3.0 02:47:19 40° NNW 02:47:19 40° NNW 02:51:38 10° NNE
Cosmos 2263 Rocket 3.8 02:43:26 10° NNW 02:45:20 22° NNW 02:45:20 22° NNW
ASTEX 1 3.8 02:47:24 10° N 02:51:25 58° N 02:51:25 58° N
Cosmos 2322 Rocket 2.6 02:54:20 47° SSE 02:55:34 58° ESE 03:01:10 10° NNE
Cosmos 1898 Rocket 3.6 02:52:17 10° NNW 02:57:34 73° ENE 03:02:51 10° SSE
Cosmos 1666 4.0 02:56:14 10° N 02:59:07 38° NE 02:59:07 38° NE
Spot 4 Rocket 4.0 02:55:26 10° NNE 03:00:36 81° ESE 03:01:01 74° SSE
Meteor 1-11 Rocket 4.2 02:56:17 10° N 03:01:59 61° ENE 03:07:32 10° SSE
Lacrosse 5 3.4 03:01:39 25° NNW 03:02:09 25° NNW 03:06:21 10° NE
Cosmos 921 Rocket 4.3 03:05:07 30° N 03:05:07 30° N 03:07:29 10° N
Cosmos 1812 4.1 03:08:14 31° N 03:08:14 31° N 03:10:23 10° N
SL-16 R/B 2.1 03:06:39 64° SSW 03:07:35 86° ESE 03:13:18 10° NNE
Meteor 1-27 Rocket 4.4 03:05:04 19° SSE 03:09:17 58° E 03:15:03 10° NNE
Resurs 1-4 Rocket 4.3 03:06:57 10° NNW 03:08:00 13° NW 03:08:00 13° NW
ERBS 4.5 03:12:22 21° N 03:12:22 21° N 03:13:59 10° NNE
IRIDIUM 104 4.3 03:07:23 10° N 03:12:39 82° E 03:15:22 29° S
Cosmos 1727 Rocket 4.1 03:09:26 25° S 03:13:23 78° E 03:19:42 10° N
Cosmos 1339 Rocket 4.4 03:12:47 56° WSW 03:13:47 64° W 03:19:57 10° N
CZ-2D R/B 4.3 03:14:05 10° NNW 03:14:55 12° NW 03:14:55 12° NW
Cosmos 1937 Rocket 3.5 03:11:55 10° NNW 03:17:06 78° ENE 03:22:13 10° SSE
CZ-4C R/B 3.9 03:20:02 44° N 03:20:02 44° N 03:22:35 10° N
FALCON 9 DEB 4.2 03:20:10 41° NNE 03:20:10 41° NNE 03:22:38 10° NE
Cosmos 841 Rocket 4.0 03:18:31 25° S 03:21:22 56° ESE 03:26:31 10° NNE
IRIDIUM 114 4.2 03:16:32 10° N 03:21:47 83° W 03:24:29 29° S
Cosmos 1536 3.2 03:20:55 10° N 03:24:59 65° E 03:29:01 10° SSE
Cosmos 1763 Rocket 3.4 03:25:16 55° SW 03:26:20 71° WNW 03:31:38 10° NNE
CZ-2D R/B 4.1 03:23:57 10° N 03:27:24 43° NW 03:27:24 43° NW
USA 32 4.0 03:24:56 10° N 03:30:13 84° E 03:35:28 10° S
ARIANE 5 R/B 3.1 03:25:54 10° N 03:30:25 38° WNW 03:30:25 38° WNW
IRIDIUM 103 4.2 03:25:44 10° N 03:30:55 69° W 03:33:37 29° SSW
NOSS 3-4 (A) 3.8 03:25:19 10° NW 03:32:23 88° NE 03:40:12 10° SE
NOSS 3-4 (C) 3.8 03:25:26 10° NW 03:32:29 87° NE 03:40:18 10° SE
Cosmos 1707 Rocket 3.4 03:32:27 52° SSW 03:33:29 82° W 03:37:52 10° N
USA 267 3.3 03:27:29 10° NE 03:34:01 73° NW 03:36:57 35° WSW
ADEOS Rocket 3.5 03:30:50 10° SSE 03:37:20 64° ENE 03:43:13 10° N
CZ-4B R/B 3.5 03:37:26 10° SE 03:40:15 28° ENE 03:43:07 10° N
Meteor 1-5 Rocket 4.5 03:36:27 10° NNW 03:41:25 40° W 03:42:00 39° WSW
ERS-2 2.6 03:37:48 10° SSE 03:41:25 62° ENE 03:45:03 10° N
Cosmos 540 Rocket 3.4 03:38:54 25° SSW 03:41:58 84° ESE 03:47:10 10° NNE
MSX 3.9 03:39:57 10° N 03:45:36 57° WNW 03:48:33 28° SW
Cosmos 44 Rocket 3.1 03:44:48 38° SW 03:46:39 84° NW 03:51:33 10° NE
Cosmos 1733 Rocket 3.0 03:43:51 10° N 03:48:13 86° E 03:52:31 10° S
Cosmos 1743 3.7 03:47:08 10° N 03:50:51 49° ENE 03:54:32 10° SSE
Cosmos 990 Rocket 4.5 03:46:26 10° NW 03:51:08 35° WSW 03:55:49 10° SSW
PAYLOAD A 3.7 03:48:29 10° NNE 03:53:12 81° WNW 03:57:13 14° SSW
Landsat 5 3.8 03:50:35 10° S 03:54:57 50° W 03:59:18 10° NNW
Cosmos 2333 Rocket 3.6 03:50:25 10° S 03:55:42 39° ESE 04:00:59 10° NE
ATLAS 2AS CENTAUR R/B 2.7 03:48:40 10° NW 03:56:11 81° SW 04:03:01 10° SSE
Cosmos 2173 Rocket 4.0 03:50:07 10° N 03:56:29 82° W 04:02:52 10° S
ADEOS 4.4 03:51:47 10° NNE 03:56:54 52° E 04:01:58 10° S
BREEZE M DEB (TANK) 4.0 03:45:27 10° WNW 03:58:11 45° SW 04:02:17 10° SSE
CZ-2C R/B 3.5 03:55:21 10° N 03:58:48 33° WNW 03:58:54 33° WNW
ADEOS II 4.0 03:57:09 10° NNW 03:59:15 13° NW 03:59:15 13° NW
SL-4 R/B 2.7 03:57:30 31° W 03:59:25 53° NNW 04:04:07 10° ENE
Cosmos 2322 4.4 03:54:58 10° S 04:00:28 54° ESE 04:05:58 10° NE
IDEFIX/ARIANE 42P 3.5 03:57:27 10° N 04:01:54 28° WNW 04:03:12 25° W
Cosmos 1570 Rocket 4.0 03:58:30 20° SSW 04:02:15 68° WNW 04:07:37 10° NNE
PSLV R/B 3.4 03:58:19 10° N 04:02:29 67° WNW 04:05:43 16° SSW
BREEZE-M DEB (TANK) 2.8 03:59:36 24° WSW 04:03:42 78° SSE 04:06:42 10° ENE
USA 276 2.2 04:03:18 33° NW 04:04:36 73° NNE 04:07:49 10° ESE
Meteor 2-20 4.4 03:59:59 10° S 04:06:08 87° E 04:12:16 10° N
Cosmos 1862 Rocket 3.4 04:03:59 10° SSW 04:08:21 72° W 04:12:42 10° N
USA 234 3.2 04:02:21 10° SE 04:08:53 75° SW 04:15:27 10° NW
BREEZE-M DEB (TANK) 3.8 04:08:00 25° WNW 04:09:46 53° N 04:17:58 10° ENE
H-2A R/B 2.7 04:09:19 10° SSW 04:13:19 33° W 04:17:24 10° NNW
CZ-4C R/B 3.6 04:06:47 10° NNW 04:13:50 59° NE 04:21:58 10° SE
SAR-Lupe-4 3.9 04:10:51 10° SSE 04:14:23 67° ENE 04:17:58 10° N
ALOS 2.8 04:11:44 10° NNE 04:16:23 60° E 04:20:59 10° S
Cosmos 1689 Rocket 4.2 04:13:44 10° SE 04:16:24 31° ENE 04:19:05 10° N
PKM 3.9 04:14:43 15° WNW 04:17:38 61° SW 04:21:38 10° SE
Cosmos 2333 4.4 04:12:51 10° SSW 04:18:37 76° ESE 04:24:24 10° NNE
FENGYUN 3A 4.1 04:13:22 10° NNE 04:18:45 66° ESE 04:24:07 10° S
Cosmos 2360 Rocket 2.3 04:15:02 14° SW 04:19:51 59° WNW 04:25:28 10° NNE
CZ-2C R/B 2.8 04:19:08 10° N 04:24:06 50° WNW 04:29:05 10° SW
Cosmos 1975 3.7 04:20:25 10° N 04:24:21 54° ENE 04:28:15 10° SSE
Meteor 1-18 Rocket 4.4 04:21:46 10° S 04:27:17 75° E 04:32:53 10° NNE
Cosmos 372 Rocket 4.0 04:23:08 10° NNW 04:28:08 52° WSW 04:33:03 10° S
Cosmos 2016 Rocket 3.9 04:22:11 10° NNW 04:28:16 70° W 04:34:18 10° S
Cosmos 1980 Rocket 4.3 04:31:18 10° NW 04:31:46 10° NW 04:32:15 10° NNW
SAR-Lupe-1 3.9 04:29:53 10° S 04:33:27 76° WSW 04:37:03 10° NNW
Cosmos 1484 Rocket 2.8 04:29:37 10° N 04:33:39 84° WNW 04:37:39 10° SSW
Cosmos 2061 Rocket 4.1 04:28:44 10° NNW 04:35:06 64° W 04:41:25 10° S
ATLAS CENTAUR Rocket 4.4 04:28:24 13° WSW 04:35:32 22° SSW 04:39:37 10° SSE
Cosmos 1515 3.6 04:33:00 10° S 04:36:47 81° W 04:40:35 10° N
Cosmos 1844 Rocket 2.9 04:31:42 10° NW 04:37:08 49° WSW 04:42:33 10° S
Cosmos 2233 Rocket 4.2 04:31:50 10° N 04:38:00 77° E 04:44:08 10° SSE
Cosmos 2322 Rocket 3.3 04:36:12 14° W 04:40:00 26° NW 04:44:45 10° N
Cosmos 2278 Rocket 3.6 04:36:43 10° NNW 04:42:04 41° ENE 04:47:23 10° SE
Okean 1 3.5 04:40:54 10° SSW 04:44:50 50° WNW 04:48:47 10° N
Cosmos 1844 3.8 04:40:33 10° NW 04:45:56 51° WSW 04:51:17 10° S
Meteor 1-31 Rocket 2.7 04:42:42 10° N 04:46:32 74° WNW 04:50:23 10° SSW
Lacrosse 5 3.8 04:42:45 10° NW 04:46:35 21° N 04:50:24 10° NE
COSMO-SKYMED 1 2.8 04:42:48 10° SSE 04:47:07 75° ENE 04:51:29 10° N
Cosmos 1725 Rocket 4.1 04:44:53 10° NNW 04:50:54 56° W 04:56:55 10° SSW
Cosmos 1437 Rocket 3.4 04:48:13 10° SW 04:51:41 33° WNW 04:55:13 10° N
Meteor 2-9 Rocket 4.1 04:46:14 10° NNW 04:51:42 76° W 04:57:02 10° S
SL-16 R/B 3.7 04:48:33 10° W 04:52:28 19° NW 04:56:25 10° N
Cosmos 2298 Rocket 4.3 04:47:51 10° NNW 04:52:57 48° WSW 04:58:00 10° S
deb Chang Zheng 4 3.9 04:49:26 10° N 04:53:30 44° WNW 04:57:32 10° SW
SJ-12 4.1 04:49:44 10° NNE 04:53:53 82° ESE 04:58:02 10° S
Cosmos 1782 Rocket 3.6 04:57:37 10° NNW 05:02:06 74° W 05:06:32 10° S
Cosmos 1908 Rocket 4.0 04:59:05 10° NNW 05:03:16 39° W 05:07:26 10° SSW
Cosmos 1703 Rocket 3.7 05:00:29 10° SSW 05:04:42 50° WNW 05:08:57 10° N
Okean 1-7 3.1 05:01:07 10° SSW 05:05:17 54° WNW 05:09:28 10° N
Cosmos 2219 Rocket 2.3 05:02:05 10° SW 05:07:43 66° WNW 05:13:25 10° NNE
